Tomahawk, WI

1:10 PM CDT on August 29, 2016 (GMT -0500)
Tomahawk

Weather History for KTKV - April, 2013

Change the Weather History Date:

Tuesday, April 2, 2013

  Actual Average (KRHI) Record (KRHI)
Temperature  
Mean Temperature 22 °F 35 °F  
Max Temperature 33 °F 46 °F 74 °F (2010)
Min Temperature 10 °F 24 °F 3 °F (1954)
Degree Days  
Heating Degree Days 44 30  
Month to date heating degree days 60  
Since 1 July heating degree days 7855  
Cooling Degree Days 0 0  
Month to date cooling degree days 0  
Year to date cooling degree days 0  
Moisture  
Dew Point 7 °F    
Average Humidity 50    
Maximum Humidity 79    
Minimum Humidity 30    
Precipitation  
Precipitation 0.00 in 0.07 in 1.32 in (1982)
Month to date precipitation 0.14  
Year to date precipitation 3.75  
Snow  
Snow 0.00 in - 6.00 in (1932)
Month to date snowfall  
Since 1 July snowfall  
Snow Depth -    
Sea Level Pressure  
Sea Level Pressure 30.17 in    
Wind  
Wind Speed 6 mph (WNW)    
Max Wind Speed 15 mph    
Max Gust Speed 22 mph    
Visibility 10 miles    
Events      
T = Trace of Precipitation, MM = Missing Value Source: NWS Daily Summary

Daily Weather History Graph

Daily Weather History Graph

Search for Another Location

Airport or City:

Trip Planner

Search our weather history database for the weather conditions in past years. The results will help you decide how hot, cold, wet, or windy it might be!

Date:

Astronomy

Apr. 02, 2013 Rise Set
Actual Time 6:37 AM CDT 7:29 PM CDT
Civil Twilight 6:07 AM CDT 7:59 PM CDT
Nautical Twilight 5:31 AM CDT 8:34 PM CDT
Astronomical Twilight 4:54 AM CDT 9:12 PM CDT
Moon 1:45 AM CDT (4/2) 11:16 AM CDT (4/2)
Length of Visible Light 13h 51m
Length of Day
12h 51m
Waning Gibbous, 55% of the Moon is Illuminated
Apr 2
Waning Gibbous
Apr 2
Last Quarter
Apr 10
New
Apr 18
First Quarter
Apr 25
Full

Hourly Weather History & Observations

Time (CDT) Temp. Windchill Dew Point Humidity Pressure Visibility Wind Dir Wind Speed Gust Speed Precip Events Conditions
12:15 AM 21.2 °F 14.9 °F 5.0 °F 50% 30.09 in 10.0 mi West 4.6 mph - N/A   Clear
12:35 AM 21.2 °F 13.6 °F 5.0 °F 50% 30.09 in 10.0 mi West 5.8 mph - N/A   Clear
12:55 AM 21.2 °F 13.6 °F 5.0 °F 50% 30.09 in 10.0 mi West 5.8 mph - N/A   Clear
1:15 AM 21.2 °F 11.7 °F 6.8 °F 54% 30.10 in 10.0 mi West 8.1 mph - N/A   Clear
1:35 AM 21.2 °F 12.6 °F 6.8 °F 54% 30.10 in 10.0 mi West 6.9 mph - N/A   Clear
1:55 AM 19.4 °F 11.5 °F 6.8 °F 58% 30.10 in 10.0 mi West 5.8 mph - N/A   Clear
2:15 AM 19.4 °F 11.5 °F 6.8 °F 58% 30.10 in 10.0 mi West 5.8 mph - N/A   Clear
2:35 AM 19.4 °F 11.5 °F 8.6 °F 63% 30.10 in 10.0 mi West 5.8 mph - N/A   Clear
2:55 AM 19.4 °F 12.8 °F 6.8 °F 58% 30.10 in 10.0 mi West 4.6 mph - N/A   Clear
3:15 AM 17.6 °F 9.3 °F 6.8 °F 63% 30.10 in 10.0 mi West 5.8 mph - N/A   Clear
3:35 AM 19.4 °F 11.5 °F 8.6 °F 63% 30.10 in 10.0 mi West 5.8 mph - N/A   Clear
3:55 AM 17.6 °F 9.3 °F 8.6 °F 68% 30.10 in 10.0 mi WNW 5.8 mph - N/A   Clear
4:15 AM 17.6 °F 10.7 °F 8.6 °F 68% 30.11 in 10.0 mi West 4.6 mph - N/A   Clear
4:35 AM 15.8 °F 10.2 °F 6.8 °F 68% 30.11 in 10.0 mi West 3.5 mph - N/A   Clear
4:55 AM 15.8 °F 8.6 °F 6.8 °F 68% 30.11 in 10.0 mi West 4.6 mph - N/A   Clear
5:15 AM 15.8 °F 8.6 °F 6.8 °F 68% 30.12 in 10.0 mi West 4.6 mph - N/A   Clear
5:35 AM 14.0 °F 8.2 °F 6.8 °F 73% 30.12 in 10.0 mi West 3.5 mph - N/A   Clear
5:55 AM 14.0 °F - 6.8 °F 73% 30.12 in 10.0 mi Calm Calm - N/A   Clear
6:15 AM 12.2 °F 6.1 °F 6.8 °F 79% 30.14 in 10.0 mi West 3.5 mph - N/A   Clear
6:35 AM 12.2 °F 6.1 °F 5.0 °F 73% 30.14 in 10.0 mi West 3.5 mph - N/A   Clear
6:55 AM 10.4 °F 4.0 °F 5.0 °F 79% 30.14 in 10.0 mi West 3.5 mph - N/A   Clear
7:15 AM 14.0 °F 6.5 °F 8.6 °F 79% 30.15 in 10.0 mi West 4.6 mph - N/A   Clear
7:35 AM 14.0 °F 6.5 °F 8.6 °F 79% 30.16 in 10.0 mi West 4.6 mph - N/A   Clear
7:55 AM 17.6 °F 10.7 °F 8.6 °F 68% 30.16 in 10.0 mi West 4.6 mph - N/A   Clear
8:15 AM 19.4 °F 10.4 °F 8.6 °F 63% 30.16 in 10.0 mi WNW 6.9 mph - N/A   Clear
8:35 AM 21.2 °F 12.6 °F 10.4 °F 63% 30.16 in 10.0 mi WNW 6.9 mph - N/A   Clear
8:55 AM 21.2 °F 11.7 °F 10.4 °F 63% 30.17 in 10.0 mi NW 8.1 mph - N/A   Clear
9:35 AM 23.0 °F 18.4 °F 10.4 °F 59% 30.17 in 10.0 mi West 3.5 mph - N/A   Clear
9:55 AM 26.6 °F 21.2 °F 10.4 °F 51% 30.17 in 10.0 mi WNW 4.6 mph - N/A   Clear
10:15 AM 26.6 °F 19.1 °F 10.4 °F 51% 30.17 in 10.0 mi West 6.9 mph - N/A   Clear
10:35 AM 28.4 °F 21.2 °F 8.6 °F 43% 30.17 in 10.0 mi West 6.9 mph - N/A   Clear
10:55 AM 28.4 °F 19.7 °F 8.6 °F 43% 30.18 in 10.0 mi WNW 9.2 mph - N/A   Scattered Clouds
11:15 AM 28.4 °F 18.5 °F 8.6 °F 43% 30.18 in 10.0 mi WNW 11.5 mph 17.3 mph N/A   Scattered Clouds
11:35 AM 28.4 °F 18.0 °F 8.6 °F 43% 30.18 in 10.0 mi NW 12.7 mph 17.3 mph N/A   Scattered Clouds
11:55 AM 30.2 °F 21.3 °F 8.6 °F 40% 30.17 in 10.0 mi West 10.4 mph 19.6 mph N/A   Scattered Clouds
12:15 PM 30.2 °F 20.8 °F 8.6 °F 40% 30.17 in 10.0 mi West 11.5 mph 16.1 mph N/A   Scattered Clouds
12:35 PM 30.2 °F 24.3 °F 8.6 °F 40% 30.17 in 10.0 mi NW 5.8 mph 20.7 mph N/A   Scattered Clouds
12:55 PM 30.2 °F 20.8 °F 8.6 °F 40% 30.17 in 10.0 mi NW 11.5 mph 18.4 mph N/A   Scattered Clouds
1:15 PM 32.0 °F 23.6 °F 8.6 °F 38% 30.17 in 10.0 mi West 10.4 mph 21.9 mph N/A   Scattered Clouds
1:35 PM 32.0 °F 22.5 °F 6.8 °F 35% 30.17 in 10.0 mi NW 12.7 mph 17.3 mph N/A   Scattered Clouds
1:55 PM 32.0 °F 28.7 °F 8.6 °F 38% 30.16 in 10.0 mi NNW 3.5 mph 10.4 mph N/A   Scattered Clouds
2:15 PM 32.0 °F 23.0 °F 6.8 °F 35% 30.17 in 10.0 mi NW 11.5 mph 16.1 mph N/A   Mostly Cloudy
2:35 PM 32.0 °F 23.0 °F 6.8 °F 35% 30.16 in 10.0 mi WNW 11.5 mph 19.6 mph N/A   Scattered Clouds
2:55 PM 32.0 °F 22.5 °F 6.8 °F 35% 30.16 in 10.0 mi NW 12.7 mph 18.4 mph N/A   Scattered Clouds
3:15 PM 32.0 °F 23.6 °F 8.6 °F 38% 30.17 in 10.0 mi WNW 10.4 mph 20.7 mph N/A   Scattered Clouds
3:35 PM 33.8 °F 24.8 °F 6.8 °F 32% 30.16 in 10.0 mi NNW 12.7 mph 17.3 mph N/A   Scattered Clouds
3:55 PM 33.8 °F 23.9 °F 5.0 °F 30% 30.16 in 10.0 mi WNW 15.0 mph 21.9 mph N/A   Scattered Clouds
4:15 PM 32.0 °F 24.2 °F 5.0 °F 32% 30.16 in 10.0 mi WNW 9.2 mph 21.9 mph N/A   Clear
4:35 PM 33.8 °F 24.8 °F 5.0 °F 30% 30.17 in 10.0 mi WNW 12.7 mph 20.7 mph N/A   Clear
4:55 PM 33.8 °F 25.3 °F 5.0 °F 30% 30.17 in 10.0 mi WNW 11.5 mph - N/A   Scattered Clouds
5:15 PM 33.8 °F 25.3 °F 5.0 °F 30% 30.17 in 10.0 mi NW 11.5 mph 19.6 mph N/A   Scattered Clouds
5:35 PM 32.0 °F 23.0 °F 3.2 °F 30% 30.18 in 10.0 mi WNW 11.5 mph 16.1 mph N/A   Clear
5:55 PM 32.0 °F 23.0 °F 5.0 °F 32% 30.18 in 10.0 mi WNW 11.5 mph - N/A   Clear
6:15 PM 32.0 °F 24.2 °F 3.2 °F 30% 30.19 in 10.0 mi NW 9.2 mph 17.3 mph N/A   Clear
6:35 PM 32.0 °F 23.0 °F 5.0 °F 32% 30.20 in 10.0 mi NNW 11.5 mph 17.3 mph N/A   Clear
6:55 PM 32.0 °F 24.8 °F 3.2 °F 30% 30.21 in 10.0 mi NNW 8.1 mph - N/A   Clear
7:15 PM 32.0 °F 25.6 °F 5.0 °F 32% 30.21 in 10.0 mi NNW 6.9 mph - N/A   Clear
7:35 PM 30.2 °F 24.3 °F 5.0 °F 34% 30.22 in 10.0 mi NNW 5.8 mph - N/A   Clear
7:55 PM 30.2 °F 24.3 °F 3.2 °F 32% 30.22 in 10.0 mi NW 5.8 mph - N/A   Clear
8:15 PM 28.4 °F 23.3 °F 3.2 °F 34% 30.23 in 10.0 mi NW 4.6 mph - N/A   Clear
8:35 PM 28.4 °F 23.3 °F 5.0 °F 37% 30.23 in 10.0 mi NW 4.6 mph - N/A   Clear
8:55 PM 28.4 °F 23.3 °F 5.0 °F 37% 30.24 in 10.0 mi NW 4.6 mph - N/A   Clear
9:15 PM 26.6 °F - 5.0 °F 40% 30.25 in 10.0 mi Calm Calm - N/A   Clear
9:35 PM 26.6 °F - 5.0 °F 40% 30.25 in 10.0 mi Calm Calm - N/A   Clear
9:55 PM 23.0 °F - 8.6 °F 54% 30.26 in 10.0 mi Calm Calm - N/A   Clear
10:15 PM 21.2 °F 16.4 °F 8.6 °F 58% 30.26 in 10.0 mi West 3.5 mph - N/A   Clear
10:35 PM 23.0 °F 18.4 °F 6.8 °F 50% 30.26 in 10.0 mi West 3.5 mph - N/A   Clear
10:55 PM 24.8 °F - 6.8 °F 46% 30.26 in 10.0 mi Calm Calm - N/A   Clear
11:15 PM 19.4 °F - 8.6 °F 63% 30.26 in 10.0 mi Calm Calm - N/A   Clear
11:35 PM 17.6 °F - 10.4 °F 73% 30.26 in 10.0 mi Calm Calm - N/A   Clear
11:55 PM 17.6 °F - 10.4 °F 73% 30.26 in 10.0 mi Calm Calm - N/A   Clear